[[{"header":{"parameterUnit":"m.s-1","parameterCategory":1,"la1":30.2991,"la2":30.254,"lo1":-89.0895,"lo2":-89.0444,"dy":0.0017,"dx":0.0017,"nx":28,"ny":28,"refTime":"2024-07-19T09:00:00:Z","depth":0,"parameterNumber":2,"parameterNumberName":"U-component_of_WINDS"},"data":[0,0,0,0,0,0,0,0,0,0,0,0,0,0,0,0,0,0,0,0,0,0,0,0,0,0,0,0,0,0,0,0,0,0,0,0,0,0,0,0,0,0,0,0,0,0,0,0,0,0,0,0,0,0,0,0,0,0,-0.0125,-0.0125,0,-0.0108,-0.0108,-0.0108,-0.0086,-0.0086,-0.0086,-0.0085,-0.0068,-0.0067,-0.0067,0,0,0,0,0,0,0,0,0,0,0,0,0,-0.0137,-0.0137,-0.0125,-0.0125,-0.0125,-0.0108,-0.0108,-0.0108,-0.0086,-0.0086,-0.0086,-0.0085,-0.0068,-0.0067,-0.0067,0,0,0,0,0,0,0,0,0,0,0,0,0,-0.0127,-0.0137,-0.0125,-0.0112,-0.0111,-0.0108,-0.0108,-0.0108,-0.0086,-0.0086,-0.0085,-0.0085,-0.0068,-0.0067,-0.0067,-0.0076,0,0,-0.0067,-0.0066,0,0,0,0,0,0,0,0,-0.0128,-0.0127,-0.0114,-0.0113,-0.0111,-0.0099,-0.0106,-0.0097,-0.0087,-0.0096,-0.0085,-0.0085,-0.0078,-0.0077,-0.0075,-0.0075,-0.0075,-0.0067,-0.0066,-0.0066,-0.0066,0,0,0,0,0,0,0,-0.0128,-0.0127,-0.0118,-0.0114,-0.0112,-0.0106,-0.0104,-0.0104,-0.009,-0.0095,-0.0093,-0.0092,-0.0077,-0.0075,-0.0075,-0.0074,-0.0067,-0.0066,-0.0066,-0.0066,-0.0079,-0.008,0,0,0,0,0,0,-0.0131,-0.0128,-0.0119,-0.0118,-0.0118,-0.0107,-0.0104,-0.0103,-0.009,-0.0088,-0.0092,-0.0091,-0.0076,-0.0075,-0.0074,-0.0083,-0.0066,-0.0066,-0.0066,-0.0079,-0.0079,-0.008,0,0,0,0,0,0,-0.0132,-0.0131,-0.012,-0.0122,-0.0121,-0.0107,-0.0106,-0.0103,-0.0101,-0.0088,-0.0085,-0.0093,-0.0076,-0.0074,-0.0075,-0.0082,-0.0066,-0.0066,-0.0078,-0.0079,-0.008,-0.0101,0,0,0,0,0,0,-0.0132,-0.0131,-0.0135,-0.0123,-0.0121,-0.0122,-0.0106,-0.0103,-0.0101,-0.0099,-0.0088,-0.0085,-0.0075,-0.0076,-0.0075,-0.0081,-0.0066,-0.0078,-0.0079,-0.0079,-0.01,-0.0102,-0.0105,0,0,0,0,0,-0.0132,-0.0142,-0.0135,-0.0134,-0.0125,-0.0122,-0.0121,-0.0109,-0.0102,-0.0105,-0.0096,-0.0086,-0.0081,-0.0076,-0.0075,-0.0081,-0.0077,-0.0078,-0.0079,-0.0099,-0.0102,-0.0105,0,0,0,0,0,0,-0.0155,-0.014,-0.0132,-0.0138,-0.0132,-0.0119,-0.0123,-0.0113,-0.0109,-0.0107,-0.0093,-0.009,-0.0093,-0.0087,-0.0082,-0.0088,-0.0077,-0.0078,-0.0092,-0.0095,-0.0098,-0.01,-0.0065,0,0,0,0,0,-0.016,-0.016,-0.0147,-0.0153,-0.015,-0.0137,-0.0135,-0.0127,-0.0119,-0.0117,-0.0108,-0.0101,-0.0098,-0.0096,-0.0093,-0.0098,-0.0095,-0.0102,-0.0104,-0.0107,-0.0108,-0.0109,-0.0112,-0.0084,-0.0083,-0.0083,0,0,-0.0172,-0.0164,-0.0164,-0.0157,-0.0151,-0.015,-0.0135,-0.0135,-0.0134,-0.0117,-0.0117,-0.011,-0.0102,-0.0105,-0.0106,-0.01,-0.0115,-0.0108,-0.011,-0.011,-0.0111,-0.0113,-0.0116,-0.0084,-0.0084,-0.0084,0,0,-0.0193,-0.0187,-0.0191,-0.0185,-0.0176,-0.0167,-0.0168,-0.0156,-0.0151,-0.0151,-0.0138,-0.0136,-0.0131,-0.0125,-0.0121,-0.0138,-0.0128,-0.0137,-0.015,-0.0152,-0.0154,-0.0156,-0.0161,-0.0164,-0.0138,-0.0138,-0.0138,0,-0.0209,-0.0207,-0.0194,-0.0195,-0.0192,-0.0175,-0.0178,-0.0173,-0.0164,-0.0161,-0.0155,-0.0147,-0.014,-0.0142,-0.0145,-0.0143,-0.0143,-0.0139,-0.0155,-0.0157,-0.0158,-0.0163,-0.0165,-0.0139,-0.0139,-0.0139,-0.0139,0,-0.0227,-0.0226,-0.023,-0.0221,-0.0218,-0.022,-0.0206,-0.0205,-0.0196,-0.0187,-0.0187,-0.0177,-0.0171,-0.0171,-0.0162,-0.017,-0.0167,-0.0158,-0.0146,-0.0162,-0.0167,-0.0169,-0.0141,-0.014,-0.014,-0.014,0,0,-0.0263,-0.0245,-0.0247,-0.0242,-0.023,-0.0229,-0.0229,-0.0223,-0.0222,-0.0215,-0.0215,-0.021,-0.0201,-0.0197,-0.0187,-0.0189,-0.0202,-0.0179,-0.0179,-0.0184,-0.0209,-0.0216,-0.0219,-0.0194,-0.0195,-0.0195,-0.021,0,-0.0282,-0.0283,-0.027,-0.0274,-0.0272,-0.0255,-0.0256,-0.0248,-0.0239,-0.0236,-0.0227,-0.0224,-0.0212,-0.0209,-0.021,-0.02,-0.0206,-0.0199,-0.0194,-0.0194,-0.0197,-0.0221,-0.0229,-0.0244,-0.0211,-0.0212,-0.0212,0,-0.0304,-0.0298,-0.0302,-0.0289,-0.0288,-0.0289,-0.0281,-0.0278,-0.0269,-0.0262,-0.0257,-0.0245,-0.0244,-0.0232,-0.023,-0.0225,-0.0222,-0.0216,-0.0217,-0.0216,-0.0204,-0.0222,-0.0248,-0.025,-0.0215,-0.0214,-0.0214,0,-0.033,-0.0323,-0.0324,-0.032,-0.0305,-0.0306,-0.0299,-0.0289,-0.0285,-0.0278,-0.0276,-0.0269,-0.0265,-0.0259,-0.0246,-0.0239,-0.0245,-0.0233,-0.0239,-0.0239,-0.0242,-0.0242,-0.0268,-0.0239,-0.0239,-0.0239,-0.0239,0,-0.0353,-0.0356,-0.0335,-0.0336,-0.0339,-0.0323,-0.0326,-0.0317,-0.0308,-0.0306,-0.0291,-0.0289,-0.0271,-0.0268,-0.0257,-0.0256,-0.0254,-0.0249,-0.0246,-0.0251,-0.0251,-0.0249,-0.0248,-0.024,-0.0239,-0.0239,-0.0239,0,-0.0383,-0.0369,-0.0369,-0.0354,-0.035,-0.0353,-0.0339,-0.0339,-0.0328,-0.0326,-0.0325,-0.0309,-0.0303,-0.0289,-0.028,-0.0272,-0.0275,-0.0269,-0.0278,-0.0277,-0.0284,-0.0283,-0.031,-0.0313,-0.0281,-0.0282,-0.0282,0,-0.0398,-0.04,-0.0385,-0.0383,-0.0377,-0.0373,-0.0369,-0.0353,-0.035,-0.0338,-0.0339,-0.0332,-0.0326,-0.0318,-0.0305,-0.0297,-0.0292,-0.0301,-0.0291,-0.0295,-0.0292,-0.0292,-0.0292,-0.0304,-0.0305,-0.0305,-0.0305,0,-0.0428,-0.042,-0.0416,-0.0408,-0.0404,-0.0397,-0.039,-0.0389,-0.037,-0.0367,-0.0361,-0.0356,-0.0347,-0.034,-0.033,-0.0322,-0.0311,-0.0308,-0.031,-0.0315,-0.032,-0.0317,-0.0285,-0.0308,-0.0308,-0.0308,-0.0308,-0.0307,-0.0451,-0.0452,-0.044,-0.0435,-0.0428,-0.0421,-0.0419,-0.0408,-0.0403,-0.0394,-0.0384,-0.0379,-0.0368,-0.0353,-0.0346,-0.0342,-0.0336,-0.0337,-0.0338,-0.0339,-0.0341,-0.032,-0.034,-0.034,-0.0339,-0.0339,-0.0339,0,-0.048,-0.0471,-0.0467,-0.0456,-0.0452,-0.044,-0.0431,-0.0428,-0.0424,-0.0414,-0.0408,-0.0401,-0.0393,-0.0379,-0.0371,-0.037,-0.0364,-0.0368,-0.0368,-0.0366,-0.0346,-0.0346,-0.0373,-0.0373,-0.0372,-0.0372,-0.0372,-0.0372,-0.0494,-0.0494,-0.0485,-0.0481,-0.0472,-0.0467,-0.0463,-0.0456,-0.0448,-0.044,-0.0434,-0.0425,-0.0413,-0.0403,-0.0395,-0.0391,-0.0389,-0.0395,-0.0389,-0.0371,-0.0368,-0.0365,-0.0365,-0.0394,-0.0394,-0.0409,-0.0409,-0.041]},{"header":{"parameterUnit":"m.s-1","parameterCategory":1,"la1":30.2991,"la2":30.254,"lo1":-89.0895,"lo2":-89.0444,"dy":0.0017,"dx":0.0017,"nx":28,"ny":28,"refTime":"2024-07-19T09:00:00:Z","depth":0,"parameterNumber":3,"parameterNumberName":"V-component_of_WINDS"},"data":[0,0,0,0,0,0,0,0,0,0,0,0,0,0,0,0,0,0,0,0,0,0,0,0,0,0,0,0,0,0,0,0,0,0,0,0,0,0,0,0,0,0,0,0,0,0,0,0,0,0,0,0,0,0,0,0,0,0,1.0029,1.003,0,1.012,1.0121,1.0122,1.0147,1.0147,1.0146,1.0146,1.0239,1.0242,1.0245,0,0,0,0,0,0,0,0,0,0,0,0,0,0.9877,0.988,1.0029,1.003,1.0032,1.012,1.0121,1.0123,1.0147,1.0147,1.0146,1.0145,1.0238,1.0242,1.0245,0,0,0,0,0,0,0,0,0,0,0,0,0,0.9953,0.9881,1.0029,1.0055,1.0058,1.012,1.0121,1.0123,1.0148,1.0147,1.0146,1.0145,1.0237,1.0241,1.0246,1.0289,0,0,1.0259,1.0261,0,0,0,0,0,0,0,0,0.9949,0.9959,1.005,1.0053,1.0057,1.0122,1.0102,1.0179,1.0148,1.0113,1.0146,1.0145,1.0201,1.0208,1.0227,1.0294,1.0298,1.026,1.0263,1.0264,1.0266,0,0,0,0,0,0,0,0.9944,0.9955,1.0065,1.0051,1.0055,1.0062,1.0071,1.0117,1.016,1.0116,1.0118,1.0129,1.0202,1.0223,1.0229,1.0299,1.026,1.0264,1.0266,1.0268,1.0406,1.0407,0,0,0,0,0,0,0.9934,0.995,1.0062,1.0068,1.0,1.0065,1.0076,1.0102,1.016,1.0168,1.0129,1.013,1.0215,1.0224,1.0233,1.0288,1.0264,1.0269,1.0271,1.0406,1.0407,1.0408,0,0,0,0,0,0,0.993,0.9944,1.0059,1.001,1.0025,1.0068,1.0097,1.0104,1.0124,1.017,1.0178,1.0142,1.0215,1.0226,1.0275,1.0292,1.0271,1.0275,1.0404,1.0406,1.0407,1.0398,0,0,0,0,0,0,0.9926,0.9942,0.9959,1.001,1.0027,1.0099,1.0098,1.0106,1.0132,1.0133,1.0184,1.0191,1.0215,1.0268,1.028,1.0297,1.0278,1.0403,1.0405,1.0407,1.0397,1.0399,1.0401,0,0,0,0,0,0.992,0.9953,0.996,0.9973,1.0049,1.01,1.011,1.0137,1.0133,1.015,1.018,1.019,1.0288,1.0273,1.0286,1.0305,1.0402,1.0404,1.0407,1.0397,1.0399,1.0401,0,0,0,0,0,0,0.9903,0.996,0.9968,1.0018,1.0054,1.0104,1.0127,1.0139,1.0177,1.0176,1.0208,1.0219,1.0266,1.0291,1.0273,1.0351,1.0345,1.035,1.0333,1.0336,1.0338,1.0331,1.0282,0,0,0,0,0,0.9905,0.9941,0.9989,1.0029,1.0046,1.0084,1.0107,1.0124,1.0163,1.0178,1.0211,1.0249,1.0288,1.0313,1.0352,1.0401,1.0413,1.0421,1.0422,1.0424,1.0428,1.0456,1.046,1.0415,1.0415,1.0415,0,0,0.9909,0.9945,0.9966,1.0026,1.0056,1.0093,1.0096,1.0135,1.0164,1.0184,1.0233,1.0258,1.0302,1.0351,1.0374,1.0373,1.0443,1.0426,1.0427,1.0431,1.0459,1.0463,1.0467,1.0417,1.0416,1.0416,0,0,0.9936,0.9967,1.0003,1.0033,1.0078,1.0103,1.0112,1.016,1.0178,1.0227,1.0243,1.0277,1.0344,1.0375,1.0399,1.0438,1.0449,1.0449,1.0459,1.0486,1.049,1.0493,1.0508,1.0512,1.0453,1.0453,1.0453,0,0.9936,0.9993,1.002,1.0059,1.0085,1.0105,1.0143,1.017,1.0226,1.0244,1.0241,1.0326,1.0356,1.0413,1.0423,1.0442,1.0453,1.0444,1.0487,1.0491,1.0494,1.0509,1.0514,1.0453,1.0453,1.0453,1.0453,0,0.999,1.0029,1.0053,1.0107,1.0135,1.0173,1.0207,1.0232,1.0247,1.0272,1.0322,1.0359,1.0406,1.0421,1.0436,1.048,1.0478,1.0481,1.0476,1.0498,1.0512,1.0518,1.0453,1.0453,1.0453,1.0453,0,0,1.0009,1.0077,1.0086,1.011,1.0162,1.0193,1.0231,1.0277,1.0299,1.0336,1.037,1.0426,1.0429,1.0457,1.0475,1.0499,1.0528,1.0499,1.0501,1.0504,1.058,1.0578,1.0584,1.0536,1.0537,1.0538,1.0577,0,1.0043,1.0113,1.0139,1.0196,1.0233,1.0253,1.0287,1.0322,1.0347,1.0381,1.0408,1.0448,1.0449,1.0465,1.049,1.0519,1.0544,1.0517,1.0568,1.0569,1.0557,1.0591,1.0589,1.0625,1.0582,1.0583,1.0584,0,1.0092,1.0131,1.0191,1.0239,1.0255,1.0285,1.0329,1.0362,1.0403,1.0419,1.045,1.0467,1.0509,1.0501,1.0559,1.054,1.0562,1.0579,1.0582,1.0588,1.0578,1.0599,1.0636,1.0642,1.0593,1.0592,1.0591,0,1.0101,1.0167,1.0213,1.0233,1.0289,1.031,1.0334,1.0374,1.04,1.0439,1.0456,1.0499,1.0523,1.0556,1.0584,1.0575,1.064,1.0634,1.0655,1.0654,1.0668,1.0667,1.071,1.0681,1.0681,1.0681,1.068,0,1.0136,1.0173,1.0217,1.0245,1.0287,1.0316,1.0357,1.0383,1.0418,1.0452,1.0471,1.0502,1.0538,1.0573,1.0596,1.0641,1.0651,1.0666,1.0671,1.0664,1.0663,1.068,1.0678,1.0682,1.0682,1.0681,1.0681,0,1.0153,1.0184,1.0235,1.0284,1.0297,1.0326,1.0368,1.0396,1.0421,1.0463,1.0475,1.0514,1.0557,1.0589,1.0644,1.0659,1.0708,1.0713,1.0694,1.0697,1.0717,1.0715,1.0773,1.0782,1.0746,1.0746,1.0747,0,1.0174,1.0202,1.0255,1.0278,1.0303,1.0341,1.0368,1.0398,1.0425,1.0473,1.0496,1.054,1.0577,1.0645,1.0679,1.0722,1.0729,1.0746,1.0736,1.0728,1.073,1.0728,1.0732,1.0748,1.0748,1.0749,1.0749,0,1.0208,1.0222,1.0259,1.0303,1.0334,1.0369,1.0405,1.0424,1.046,1.049,1.0534,1.0563,1.062,1.0664,1.071,1.0735,1.0749,1.0752,1.0759,1.0753,1.0741,1.0748,1.0699,1.075,1.075,1.075,1.075,1.075,1.0228,1.0255,1.0296,1.0337,1.0367,1.04,1.0429,1.0458,1.0495,1.0544,1.0559,1.0605,1.0646,1.0709,1.0735,1.0772,1.0772,1.0782,1.0785,1.0787,1.0787,1.0734,1.078,1.078,1.078,1.078,1.078,0,1.0264,1.0291,1.0329,1.0378,1.0411,1.042,1.046,1.0487,1.0527,1.0564,1.06,1.0651,1.0694,1.0731,1.0776,1.0798,1.0806,1.0809,1.0808,1.0814,1.0784,1.0774,1.0803,1.0803,1.0803,1.0803,1.0803,1.0803,1.0286,1.0332,1.0351,1.0412,1.0439,1.0485,1.0507,1.0538,1.0567,1.0623,1.0659,1.0683,1.072,1.0768,1.0808,1.0817,1.0833,1.0836,1.0847,1.0819,1.0816,1.0814,1.0804,1.0839,1.0839,1.0874,1.0874,1.0875]}]]